Hourly Data Report for June 08, 2020

BORDEN AWOS
ONTARIO
Current Station Operator: DND

44°16'20.000" N
79°54'42.000" W
222.50 m
611B002
71534
YBN

Download Data

Hourly Data (June 2020)
Hourly Data Report for June 8, 2020
TIME
LST
Temp Definition
°C
Dew Point Definition
°C
Rel Hum Definition
%
Precip. Amount Definition
mm

Wind Dir Definition
10's deg

Wind Spd Definition
km/h
Visibility Definition
km
Stn Press Definition
kPa
Hmdx Definition


Wind Chill Definition


Weather Definition


00:00 5.6 4.6 93     0 14.5 99.29     LegendNANA
01:00 5.9 5.1 95   30 4 14.5 99.31     LegendNANA
02:00 5.8 5.1 95     0 14.5 99.27     LegendNANA
03:00 3.7 3.3 97     0 14.5 99.26     LegendNANA
04:00 3.3 3.1 99     0 14.5 99.28     LegendNANA
05:00 4.1 3.5 96     0 14.5 99.30     LegendNANA
06:00 8.9 7.8 93     0 14.5 99.32     LegendNANA
07:00 12.2 7.8 75   7 6 14.5 99.36     LegendNANA
08:00 15.0 8.3 64   8 4 14.5 99.38     LegendNANA
09:00 17.6 8.2 54     0 14.5 99.37     LegendNANA
10:00 19.1 8.0 49     0 14.5 99.33     LegendNANA
11:00 21.2 7.6 42   12 11 14.5 99.26     LegendNANA
12:00 22.5 7.8 39   13 7 14.5 99.24     LegendNANA
13:00 23.1 7.2 36   27 7 14.5 99.17     LegendNANA
14:00 24.3 8.7 37   11 6 14.5 99.09 25   LegendNANA
15:00 25.1 9.6 38   26 4 14.5 98.98 26   LegendNANA
16:00 25.5 9.7 37     0 14.5 98.89 27   LegendNANA
17:00 26.1 10.8 38   23 7 14.5 98.84 28   LegendNANA
18:00 25.6 11.2 41   35 13 14.5 98.81 27   LegendNANA
19:00 23.1 10.2 44     0 14.5 98.81     LegendNANA
20:00 19.0 11.8 63     0 14.5 98.74     LegendNANA
21:00 16.8 11.4 71   1 4 14.5 98.78     LegendNANA
22:00 13.9 10.7 81     0 14.5 98.76     LegendNANA
23:00 12.5 10.5 88     0 14.5 98.76     LegendNANA

Notes on Data Quality.

Legend

  • E = Estimated
  • M = Missing
  • NA = Not Available*
  • [empty] = Indicates an unobserved value
Date modified: